Time,TemperatureF,DewpointF,PressureIn,WindDirection,WindDirectionDegrees,WindSpeedMPH,WindSpeedGustMPH,Humidity,HourlyPrecipIn,Conditions,Clouds,dailyrainin,SoftwareType,DateUTC
2013-02-04 00:04:00,26.9,24.0,29.67,NW,304,9.0,19.0,89,0.00,,,0.00,weatherlink.com 1.10,2013-02-04 05:04:00,
2013-02-04 00:20:00,26.9,24.0,29.67,NNW,330,9.0,13.0,90,0.00,,,0.00,weatherlink.com 1.10,2013-02-04 05:20:00,
2013-02-04 00:35:00,26.7,25.0,29.67,NW,308,8.0,12.0,91,0.00,,,0.00,weatherlink.com 1.10,2013-02-04 05:35:00,
2013-02-04 00:50:00,26.5,24.0,29.67,NW,314,6.0,16.0,91,0.00,,,0.00,weatherlink.com 1.10,2013-02-04 05:50:00,
2013-02-04 01:05:00,26.5,24.0,29.67,NW,312,7.0,14.0,90,0.00,,,0.00,weatherlink.com 1.10,2013-02-04 06:05:00,
2013-02-04 01:20:00,26.7,24.0,29.68,NW,325,9.0,11.0,89,0.00,,,0.00,weatherlink.com 1.10,2013-02-04 06:20:00,
2013-02-04 01:35:00,26.8,24.0,29.68,NW,319,5.0,12.0,87,0.00,,,0.00,weatherlink.com 1.10,2013-02-04 06:35:00,
2013-02-04 01:50:00,26.7,23.0,29.68,WNW,297,6.0,14.0,86,0.00,,,0.00,weatherlink.com 1.10,2013-02-04 06:50:00,
2013-02-04 02:05:00,26.6,23.0,29.68,NW,323,5.0,13.0,86,0.00,,,0.00,weatherlink.com 1.10,2013-02-04 07:05:00,
2013-02-04 02:20:00,26.3,22.0,29.68,NW,319,6.0,12.0,85,0.00,,,0.00,weatherlink.com 1.10,2013-02-04 07:20:00,
2013-02-04 02:35:00,26.1,22.0,29.67,WNW,297,7.0,11.0,85,0.00,,,0.00,weatherlink.com 1.10,2013-02-04 07:35:00,
2013-02-04 02:50:00,25.8,22.0,29.67,WNW,298,5.0,10.0,85,0.00,,,0.00,weatherlink.com 1.10,2013-02-04 07:50:00,
2013-02-04 03:05:00,25.7,22.0,29.67,WNW,294,4.0,8.0,85,0.00,,,0.00,weatherlink.com 1.10,2013-02-04 08:05:00,
2013-02-04 03:20:00,25.5,21.0,29.68,West,271,4.0,7.0,82,0.00,,,0.00,weatherlink.com 1.10,2013-02-04 08:20:00,
2013-02-04 03:35:00,25.7,19.0,29.68,WNW,295,5.0,11.0,76,0.00,,,0.00,weatherlink.com 1.10,2013-02-04 08:35:00,
2013-02-04 03:50:00,25.8,19.0,29.68,NW,323,2.0,9.0,74,0.00,,,0.00,weatherlink.com 1.10,2013-02-04 08:50:00,
2013-02-04 04:05:00,26.1,18.0,29.68,WNW,293,7.0,13.0,70,0.00,,,0.00,weatherlink.com 1.10,2013-02-04 09:05:00,
2013-02-04 04:20:00,26.2,17.0,29.69,WNW,288,6.0,12.0,69,0.00,,,0.00,weatherlink.com 1.10,2013-02-04 09:20:00,
2013-02-04 04:35:00,26.2,17.0,29.69,NW,312,8.0,12.0,69,0.00,,,0.00,weatherlink.com 1.10,2013-02-04 09:35:00,
2013-02-04 04:50:00,26.3,16.0,29.70,WNW,297,7.0,12.0,66,0.00,,,0.00,weatherlink.com 1.10,2013-02-04 09:50:00,
2013-02-04 05:05:00,26.0,16.0,29.70,NW,312,4.0,9.0,66,0.00,,,0.00,weatherlink.com 1.10,2013-02-04 10:05:00,
2013-02-04 05:20:00,26.0,16.0,29.70,NW,325,8.0,10.0,66,0.00,,,0.00,weatherlink.com 1.10,2013-02-04 10:20:00,
2013-02-04 05:35:00,26.0,16.0,29.71,NW,307,6.0,11.0,67,0.00,,,0.00,weatherlink.com 1.10,2013-02-04 10:35:00,
2013-02-04 05:50:00,25.4,16.0,29.71,WNW,286,2.0,6.0,68,0.00,,,0.00,weatherlink.com 1.10,2013-02-04 10:50:00,
2013-02-04 06:06:00,25.4,17.0,29.72,WNW,295,4.0,8.0,69,0.00,,,0.00,weatherlink.com 1.10,2013-02-04 11:06:00,
2013-02-04 06:20:00,25.3,17.0,29.72,WNW,303,3.0,8.0,70,0.00,,,0.00,weatherlink.com 1.10,2013-02-04 11:20:00,
2013-02-04 06:35:00,25.8,17.0,29.73,WNW,289,6.0,10.0,70,0.00,,,0.00,weatherlink.com 1.10,2013-02-04 11:35:00,
2013-02-04 06:50:00,26.1,18.0,29.73,NNW,342,5.0,11.0,71,0.00,,,0.00,weatherlink.com 1.10,2013-02-04 11:50:00,
2013-02-04 07:05:00,26.5,18.0,29.73,WNW,299,6.0,16.0,70,0.00,,,0.00,weatherlink.com 1.10,2013-02-04 12:05:00,
2013-02-04 07:20:00,26.9,18.0,29.74,WNW,288,5.0,11.0,69,0.00,,,0.00,weatherlink.com 1.10,2013-02-04 12:20:00,
2013-02-04 07:35:00,27.2,18.0,29.74,NW,309,6.0,11.0,68,0.00,,,0.00,weatherlink.com 1.10,2013-02-04 12:35:00,
2013-02-04 07:50:00,27.6,18.0,29.75,WNW,295,4.0,12.0,68,0.00,,,0.00,weatherlink.com 1.10,2013-02-04 12:50:00,
2013-02-04 08:05:00,27.5,18.0,29.75,WNW,301,9.0,15.0,67,0.00,,,0.00,weatherlink.com 1.10,2013-02-04 13:05:00,
2013-02-04 08:20:00,28.1,18.0,29.76,NW,310,6.0,16.0,67,0.00,,,0.00,weatherlink.com 1.10,2013-02-04 13:20:00,
2013-02-04 08:36:00,28.2,18.0,29.75,WNW,299,9.0,21.0,65,0.00,,,0.00,weatherlink.com 1.10,2013-02-04 13:36:00,
2013-02-04 08:50:00,28.3,17.0,29.75,NW,314,13.0,18.0,64,0.00,,,0.00,weatherlink.com 1.10,2013-02-04 13:50:00,
2013-02-04 09:05:00,28.2,17.0,29.77,NW,314,14.0,17.0,64,0.00,,,0.00,weatherlink.com 1.10,2013-02-04 14:05:00,
2013-02-04 09:20:00,28.6,17.0,29.77,NW,322,9.0,23.0,63,0.00,,,0.00,weatherlink.com 1.10,2013-02-04 14:20:00,
2013-02-04 09:35:00,28.3,16.0,29.77,WNW,289,13.0,21.0,61,0.00,,,0.00,weatherlink.com 1.10,2013-02-04 14:35:00,
2013-02-04 09:50:00,28.5,16.0,29.76,NW,315,11.0,22.0,61,0.00,,,0.00,weatherlink.com 1.10,2013-02-04 14:50:00,
2013-02-04 10:06:00,29.1,17.0,29.77,NW,305,7.0,19.0,60,0.00,,,0.00,weatherlink.com 1.10,2013-02-04 15:06:00,
2013-02-04 10:21:00,29.7,17.0,29.77,NW,314,8.0,13.0,59,0.00,,,0.00,weatherlink.com 1.10,2013-02-04 15:21:00,
2013-02-04 10:36:00,29.6,17.0,29.78,NW,309,6.0,17.0,59,0.00,,,0.00,weatherlink.com 1.10,2013-02-04 15:36:00,
2013-02-04 10:51:00,29.6,16.0,29.78,NW,306,11.0,21.0,56,0.00,,,0.00,weatherlink.com 1.10,2013-02-04 15:51:00,
2013-02-04 11:06:00,30.2,17.0,29.77,West,281,9.0,18.0,59,0.00,,,0.00,weatherlink.com 1.10,2013-02-04 16:06:00,
2013-02-04 11:21:00,29.6,15.0,29.77,WNW,297,9.0,26.0,54,0.00,,,0.00,weatherlink.com 1.10,2013-02-04 16:21:00,
2013-02-04 11:36:00,30.0,14.0,29.77,WNW,299,7.0,22.0,52,0.00,,,0.00,weatherlink.com 1.10,2013-02-04 16:36:00,
2013-02-04 11:51:00,30.5,15.0,29.76,NW,309,11.0,20.0,53,0.00,,,0.00,weatherlink.com 1.10,2013-02-04 16:51:00,
2013-02-04 12:06:00,30.3,14.0,29.77,NW,305,6.0,27.0,50,0.00,,,0.00,weatherlink.com 1.10,2013-02-04 17:06:00,
2013-02-04 12:21:00,30.8,14.0,29.76,WNW,293,7.0,19.0,51,0.00,,,0.00,weatherlink.com 1.10,2013-02-04 17:21:00,
2013-02-04 12:36:00,30.4,14.0,29.76,WNW,302,17.0,24.0,50,0.00,,,0.00,weatherlink.com 1.10,2013-02-04 17:36:00,
2013-02-04 12:51:00,30.1,12.0,29.75,WNW,302,5.0,23.0,48,0.00,,,0.00,weatherlink.com 1.10,2013-02-04 17:51:00,
2013-02-04 13:06:00,30.5,12.0,29.76,NW,316,14.0,20.0,46,0.00,,,0.00,weatherlink.com 1.10,2013-02-04 18:06:00,
2013-02-04 13:21:00,30.9,14.0,29.75,WNW,284,5.0,18.0,49,0.00,,,0.00,weatherlink.com 1.10,2013-02-04 18:21:00,
2013-02-04 13:36:00,31.2,14.0,29.75,NW,319,6.0,18.0,49,0.00,,,0.00,weatherlink.com 1.10,2013-02-04 18:36:00,
2013-02-04 13:51:00,31.1,14.0,29.76,WNW,294,15.0,21.0,50,0.00,,,0.00,weatherlink.com 1.10,2013-02-04 18:51:00,
2013-02-04 14:06:00,30.8,14.0,29.77,West,271,6.0,17.0,49,0.00,,,0.00,weatherlink.com 1.10,2013-02-04 19:06:00,
2013-02-04 14:21:00,30.5,13.0,29.77,WNW,289,8.0,16.0,48,0.00,,,0.00,weatherlink.com 1.10,2013-02-04 19:21:00,
2013-02-04 14:36:00,30.4,13.0,29.77,NW,322,13.0,20.0,48,0.00,,,0.00,weatherlink.com 1.10,2013-02-04 19:36:00,
2013-02-04 14:51:00,30.9,13.0,29.77,NW,305,11.0,20.0,48,0.00,,,0.00,weatherlink.com 1.10,2013-02-04 19:51:00,
2013-02-04 15:06:00,31.3,14.0,29.78,NW,307,16.0,18.0,49,0.00,,,0.00,weatherlink.com 1.10,2013-02-04 20:06:00,
2013-02-04 15:21:00,30.4,13.0,29.79,WNW,285,7.0,16.0,49,0.00,,,0.00,weatherlink.com 1.10,2013-02-04 20:21:00,
2013-02-04 15:36:00,30.0,13.0,29.78,WNW,301,2.0,14.0,49,0.00,,,0.00,weatherlink.com 1.10,2013-02-04 20:36:00,
2013-02-04 15:51:00,30.9,12.0,29.78,NW,307,10.0,16.0,46,0.00,,,0.00,weatherlink.com 1.10,2013-02-04 20:51:00,
2013-02-04 16:06:00,30.6,12.0,29.78,NW,304,12.0,22.0,47,0.00,,,0.00,weatherlink.com 1.10,2013-02-04 21:06:00,
2013-02-04 16:21:00,30.1,13.0,29.79,WNW,298,2.0,15.0,49,0.00,,,0.00,weatherlink.com 1.10,2013-02-04 21:21:00,
2013-02-04 16:36:00,29.7,12.0,29.79,NW,310,5.0,14.0,48,0.00,,,0.00,weatherlink.com 1.10,2013-02-04 21:36:00,
2013-02-04 16:51:00,29.3,12.0,29.79,West,277,4.0,14.0,49,0.00,,,0.00,weatherlink.com 1.10,2013-02-04 21:51:00,
2013-02-04 17:06:00,29.0,12.0,29.80,NW,304,7.0,19.0,49,0.00,,,0.00,weatherlink.com 1.10,2013-02-04 22:06:00,
2013-02-04 17:21:00,28.9,11.0,29.80,NW,310,2.0,12.0,48,0.00,,,0.00,weatherlink.com 1.10,2013-02-04 22:21:00,
2013-02-04 17:36:00,28.8,12.0,29.81,SW,234,2.0,11.0,49,0.00,,,0.00,weatherlink.com 1.10,2013-02-04 22:36:00,
2013-02-04 17:51:00,28.2,12.0,29.82,West,281,5.0,9.0,51,0.00,,,0.00,weatherlink.com 1.10,2013-02-04 22:51:00,
2013-02-04 18:06:00,28.2,12.0,29.83,WNW,302,1.0,10.0,51,0.00,,,0.00,weatherlink.com 1.10,2013-02-04 23:06:00,
2013-02-04 18:21:00,28.1,12.0,29.84,WNW,282,1.0,7.0,51,0.00,,,0.00,weatherlink.com 1.10,2013-02-04 23:21:00,
2013-02-04 18:36:00,28.3,12.0,29.84,WNW,290,7.0,9.0,51,0.00,,,0.00,weatherlink.com 1.10,2013-02-04 23:36:00,
2013-02-04 18:51:00,28.3,12.0,29.84,West,267,3.0,10.0,51,0.00,,,0.00,weatherlink.com 1.10,2013-02-04 23:51:00,
2013-02-04 19:06:00,28.1,13.0,29.84,WNW,294,2.0,7.0,53,0.00,,,0.00,weatherlink.com 1.10,2013-02-05 00:06:00,
2013-02-04 19:21:00,27.8,13.0,29.85,West,281,2.0,8.0,53,0.00,,,0.00,weatherlink.com 1.10,2013-02-05 00:21:00,
2013-02-04 19:36:00,28.1,12.0,29.86,WNW,297,4.0,11.0,52,0.00,,,0.00,weatherlink.com 1.10,2013-02-05 00:36:00,
2013-02-04 19:51:00,27.9,13.0,29.86,NW,306,1.0,6.0,53,0.00,,,0.00,weatherlink.com 1.10,2013-02-05 00:51:00,
2013-02-04 20:06:00,27.9,13.0,29.86,NW,310,2.0,7.0,53,0.00,,,0.00,weatherlink.com 1.10,2013-02-05 01:06:00,
2013-02-04 20:21:00,27.8,13.0,29.87,WNW,297,4.0,7.0,53,0.00,,,0.00,weatherlink.com 1.10,2013-02-05 01:21:00,
2013-02-04 20:36:00,27.9,12.0,29.88,WNW,293,2.0,10.0,52,0.00,,,0.00,weatherlink.com 1.10,2013-02-05 01:36:00,
2013-02-04 20:51:00,27.8,13.0,29.88,WNW,291,3.0,6.0,53,0.00,,,0.00,weatherlink.com 1.10,2013-02-05 01:51:00,
2013-02-04 21:06:00,28.1,12.0,29.88,NW,324,4.0,10.0,52,0.00,,,0.00,weatherlink.com 1.10,2013-02-05 02:06:00,
2013-02-04 21:21:00,28.4,12.0,29.89,West,281,3.0,13.0,51,0.00,,,0.00,weatherlink.com 1.10,2013-02-05 02:21:00,
2013-02-04 21:36:00,28.6,12.0,29.89,WNW,282,5.0,12.0,49,0.00,,,0.00,weatherlink.com 1.10,2013-02-05 02:36:00,
2013-02-04 21:51:00,28.8,12.0,29.89,NW,325,4.0,11.0,50,0.00,,,0.00,weatherlink.com 1.10,2013-02-05 02:51:00,
2013-02-04 22:07:00,28.7,12.0,29.89,WNW,303,6.0,11.0,50,0.00,,,0.00,weatherlink.com 1.10,2013-02-05 03:07:00,
2013-02-04 22:21:00,28.6,12.0,29.89,WNW,283,9.0,11.0,50,0.00,,,0.00,weatherlink.com 1.10,2013-02-05 03:21:00,
2013-02-04 22:37:00,28.2,12.0,29.89,NW,319,4.0,12.0,51,0.00,,,0.00,weatherlink.com 1.10,2013-02-05 03:37:00,
2013-02-04 22:52:00,27.9,12.0,29.90,West,280,7.0,9.0,51,0.00,,,0.00,weatherlink.com 1.10,2013-02-05 03:52:00,
2013-02-04 23:07:00,27.7,12.0,29.90,WNW,288,6.0,10.0,51,0.00,,,0.00,weatherlink.com 1.10,2013-02-05 04:07:00,
2013-02-04 23:22:00,27.6,11.0,29.91,NW,305,6.0,10.0,51,0.00,,,0.00,weatherlink.com 1.10,2013-02-05 04:22:00,
2013-02-04 23:37:00,27.3,12.0,29.91,NW,314,6.0,12.0,52,0.00,,,0.00,weatherlink.com 1.10,2013-02-05 04:37:00,
2013-02-04 23:52:00,27.1,11.0,29.91,NNW,341,4.0,11.0,51,0.00,,,0.00,weatherlink.com 1.10,2013-02-05 04:52:00,